Погода в Софиевском Городке

Россия / Ставропольский край     45°41′38″N   42°22′49″E
темп.,
°C
ветер,
м/с
пор.,
м/с
влажн.,
%
обл.,
%
осадки,
мм/ч
давл.,
гПа
погр.,
м
14 июня, пн
пн1400:00+18юз2284100 0.1 101211
03:00+17зсз11865 0.1 101211
06:00+18ссз00835 0.0 101259
09:00+23в22655 0.0 1012744
12:00+26всв335221 0.0 10121822
15:00+28св334537 0.0 10112034
18:00+26ссв3558100 0.0 1010150
21:00+22ссв456225 0.0 101060
15 июня, вт
вт1500:00+20св34704 0.0 100959
03:00+18в487698 0.0 1009131
06:00+20в4117858 0.0 1009303
09:00+25вюв4660100 0.0 1010793
12:00+28вюв454917 0.0 10091653
15:00+29всв444424 0.0 10092073
18:00+24ююз346889 0.0 100970
21:00+23ююв1173100 0.1 100911
16 июня, ср
ср1600:00+21ю00790 0.1 100911
03:00+20в22810 0.1 100911
06:00+21вюв36750 0.0 1009162
09:00+27вюв57550 0.0 1008867
12:00+30в57430 0.0 10081791
15:00+31вюв57390 0.0 10072222
18:00+30ююв245134 0.0 1007141
21:00+24з22654 0.0 100813
17 июня, чт
чт1700:00+22юз11710 0.0 100811
03:00+21вюв2275100 0.0 100812
06:00+21вюв3676100 0.3 1009132
09:00+26в3658100 0.6 1009601
12:00+26з2259100 0.1 1009119
15:00+28сз5454100 0.1 1009659
18:00+20з61094100 2.4 1011342
21:00+20зсз5996100 5.5 1013319
18 июня, пт
пт1800:00+19зсз5998100 2.8 1014331
03:00+19зсз5895100 2.9 1014434
06:00+20ссз3792100 0.0 1015352
09:00+22св4560100 0.0 1016766
12:00+23св5561100 0.0 10171148
15:00+26ссв575472 0.0 10161568
18:00+21сз4674100 0.3 1016114
21:00+21св3967100 0.4 1017203